IRIDIUM 33 DEB

Satellite information

Favourite Embed

Satellite Type and Status

DEBRISIN ORBIT

Key statistics

Satellite IRIDIUM 33 DEB at a glance.

Uptime

10317

Days in orbit

Revolutions

≈ 14.3

Per day

Orbit

LEO

Low Earth Orbit

Inclination

86.3

Latest

Satellite identification and parameters

Extended collection of information and parameters for IRIDIUM 33 DEB.

Object identification

Identified? True

Debris? True

Object name: IRIDIUM 33 DEB

International designator: 1997-051GN

Object number (NORAD): 34497

Object ID (CCSDS): 34497

Country: UNITED STATES OF AMERICA (US)

Current information (Y/N): Y

RCS size: SMALL

Orbital parameters

Period: 100.879 minutes

Inclination: 86.278 deg

SMA: 7178.4 km

Apoapsis: 856.876 km

Periapsis: 743.655 km

RAAN: 52.6518 deg

Eccentricy: 0.0078862

Argument of periapsis: 341.481 deg

Mean anomaly: 47.7522 deg

Mean motion: 14.27451136 rev/day

Mean motion (dot): 0.00002415 rev/day2

B* drag term: 0.00094545609 1/REarth

Two-line elements (TLE)

Creation date: Dec. 12, 2025, 10:14 a.m.

Reference frame: TEME

Reference center: EARTH

Epoch: Dec. 12, 2025, 3:42 a.m. UTC

TLE line 0: 0 IRIDIUM 33 DEB

TLE line 1: 1 34497U 97051GN 25346.15418867 .00002415 00000-0 94546-3 0 9992

TLE line 2: 2 34497 86.2780 52.6518 0078862 341.4810 47.7522 14.27451136868754

Live tracking on map

Real-time ground track for satellite IRIDIUM 33 DEB.

In-orbit conjunctions

A list of the most updated potential collisions computed for object IRIDIUM 33 DEB.

Target Orbit TCA Probability of collision Miss distance Type
CZ-6A DEB LEO 2025-06-25 08:46:02 0.0001208076 161.0 (m) DEBRIS
FENGYUN 1C DEB SSO 2025-04-04 00:18:08 0.0001398389 166.0 (m) DEBRIS
CZ-6A DEB LEO 2025-02-26 22:17:54 0.000114899 664.0 (m) DEBRIS
TRANSIT 11 DEB SSO 2024-07-28 05:39:17 0.0001011721 247.0 (m) DEBRIS

Associated space launch

Iridium provides global mobile telecommunications services using a constellation of 66 low earth orbit satellites in a 86.4° inclined orbit. Although 77 satellites were originally envisioned for the system and spawned the name based on the 77th element in the periodic table, the system has been scaled back. Motorola's Satellite Communications Group designed and manufactured the Iridium satellites with Lockheed Martin providing the LM-700A spacecraft buses.

IRIDIUM 33 DEB was lifted into orbit during the mission ‘Proton-K/17S40 | Iridium 27 to 33’, on board a Proton-K/17S40 space rocket.

The launch took place on Sept. 14, 1997, 1:36 a.m. from 81/23 (81L).

For more information about the launch, click the button.

Launch to space Proton-K/17S40 | Iridium 27 to 33
Proton-K/17S40 | Iridium 27 to 33

Agency: N/A

Status: Launch Successful

Launch date: Sept. 14, 1997, 1:36 a.m. UTC

Rocket: Proton-K/17S40

Launch pad: 81/23 (81L)

Location: Baikonur Cosmodrome, Republic of Kazakhstan

...

Latest news about this satellite

There are no fresh news available about this satellite. Check back as we update our databases every day.


Newsletter sign-up

Weekly statistics, charts and insights to help you stay on top of the space industry.